Starlink 6250

operational
NORAD ID: 57230 Int'l Des: 2023-094 Owner: SPXS Country: US Constellation: starlink
LEOCIRCULAR

关于 Starlink 6250

正在加载描述...

实时位置

正在加载3D地球...

即将过境

高度历史

Altitude vs Time

uPlot chart will show altitude changes over time

两行轨道根数

1 57230U 23094N 25258.73982327 .00000872 00000-0 79584-4 0 9992
2 57230 43.0039 260.9000 0001405 276.1792 83.8890 15.02535412120804
Epoch: Sep 15, 2025 • Age: 17 hours

当前状态

高度 558.5 km
速度 7.58 km/s
星下点 11.50°N, 87.53°W
发射日期 Jul 7, 2023
运行时间 2.1 years
类型 internet

技术详情

分类 Payload
质量 305.00 kg
干质量 290.00 kg
总质量 305.00 kg
长度 0.20 m
直径 2.80 m
跨度 9.00 m
形状 Box + pan
制造商 SPXS
平台类型 Starlink
阶段状态 In Orbit
所有者/国家 SPXS/US

大型星座

Loading constellations...